Location: *
(38.4303°S, 157.0822°W)
Time: 14:29:26
(UTC+00:00)

Cosmos 2333 - Pass Details

Date: 21 May 2024
Orbit: 828 x 866 km, 70.9° (Epoch: 22 June)

Event Time Altitude Azimuth Distance (km) Brightness Sun altitude
Rises 16:11:48 0° 332° (NNW) 3,439 7.2 -15.0°
Reaches altitude 10° 16:14:17 10° 329° (NNW) 2,508 6.5 -14.5°
Maximum altitude 16:20:02 68° 246° (WSW) 938 4.2 -13.4°
Drops below altitude 10° 16:25:50 10° 163° (SSE) 2,522 6.7 -12.3°
Sets 16:28:19 0° 159° (SSE) 3,459 7.4 -11.9°
